[[{"header":{"parameterUnit":"m.s-1","parameterCategory":1,"la1":30.2991,"la2":30.254,"lo1":-89.0895,"lo2":-89.0444,"dy":0.0017,"dx":0.0017,"nx":28,"ny":28,"refTime":"2025-04-28T03:00:00:Z","depth":0,"parameterNumber":2,"parameterNumberName":"U-component_of_WINDS"},"data":[0,0,0,0,0,0,0,0,0,0,0,0,0,0,0,0,0,0,0,0,0,0,0,0,0,0,0,0,0,0,0,0,0,0,0,0,0,0,0,0,0,0,0,0,0,0,0,0,0,0,0,0,0,0,0,0,0,0,-1.2304,-1.2304,0,-1.2223,-1.2222,-1.2221,-1.216,-1.216,-1.2159,-1.2159,-1.2073,-1.2072,-1.207,0,0,0,0,0,0,0,0,0,0,0,0,0,-1.2408,-1.2406,-1.2305,-1.2304,-1.2303,-1.2223,-1.2222,-1.2221,-1.216,-1.216,-1.2159,-1.2159,-1.2074,-1.2072,-1.207,0,0,0,0,0,0,0,0,0,0,0,0,0,-1.2348,-1.2406,-1.2305,-1.2263,-1.2258,-1.2223,-1.2222,-1.2221,-1.2161,-1.216,-1.2159,-1.2158,-1.2075,-1.2072,-1.207,-1.2069,0,0,-1.2061,-1.206,0,0,0,0,0,0,0,0,-1.2352,-1.2345,-1.227,-1.2266,-1.226,-1.2201,-1.2227,-1.217,-1.2161,-1.2198,-1.2159,-1.2158,-1.2116,-1.211,-1.2097,-1.2065,-1.2062,-1.2061,-1.206,-1.2058,-1.2058,0,0,0,0,0,0,0,-1.2356,-1.2348,-1.2272,-1.2269,-1.2263,-1.2248,-1.2239,-1.2216,-1.2162,-1.2194,-1.219,-1.2181,-1.2114,-1.2099,-1.2094,-1.206,-1.2061,-1.2059,-1.2057,-1.2056,-1.2027,-1.2027,0,0,0,0,0,0,-1.2367,-1.2352,-1.2275,-1.227,-1.2305,-1.2247,-1.2236,-1.2221,-1.2163,-1.2153,-1.2182,-1.2179,-1.2104,-1.2097,-1.2091,-1.2088,-1.2058,-1.2056,-1.2054,-1.2026,-1.2027,-1.2028,0,0,0,0,0,0,-1.2369,-1.236,-1.2278,-1.2309,-1.2298,-1.2246,-1.2229,-1.222,-1.2205,-1.2153,-1.2143,-1.2177,-1.2103,-1.2095,-1.2076,-1.2084,-1.2055,-1.2052,-1.2025,-1.2026,-1.2027,-1.2081,0,0,0,0,0,0,-1.2372,-1.2362,-1.2361,-1.231,-1.2296,-1.2264,-1.223,-1.2219,-1.2201,-1.2196,-1.2146,-1.2137,-1.2102,-1.208,-1.2073,-1.208,-1.205,-1.2024,-1.2025,-1.2027,-1.2078,-1.2084,-1.2089,0,0,0,0,0,-1.2376,-1.2378,-1.2361,-1.2352,-1.2294,-1.2265,-1.2257,-1.2217,-1.2202,-1.2201,-1.2168,-1.2139,-1.2085,-1.2079,-1.207,-1.2076,-1.2023,-1.2025,-1.2027,-1.2076,-1.2083,-1.2089,0,0,0,0,0,0,-1.243,-1.2371,-1.2351,-1.2337,-1.2307,-1.2255,-1.2252,-1.2226,-1.2199,-1.2195,-1.2147,-1.2136,-1.2122,-1.2097,-1.2092,-1.2074,-1.205,-1.2051,-1.2091,-1.2097,-1.2102,-1.2108,-1.2048,0,0,0,0,0,-1.2441,-1.2422,-1.2371,-1.2364,-1.235,-1.2304,-1.2289,-1.2262,-1.2228,-1.2215,-1.218,-1.2148,-1.2124,-1.2109,-1.2084,-1.2075,-1.2064,-1.2075,-1.2081,-1.2085,-1.2086,-1.2081,-1.2086,-1.2034,-1.2034,-1.2034,0,0,-1.2462,-1.2427,-1.2418,-1.2374,-1.2347,-1.2329,-1.2293,-1.2275,-1.2261,-1.2212,-1.2192,-1.2166,-1.2127,-1.2114,-1.2106,-1.2093,-1.2098,-1.2088,-1.2092,-1.209,-1.2083,-1.2088,-1.2093,-1.2035,-1.2035,-1.2034,0,0,-1.2491,-1.2463,-1.2454,-1.2429,-1.2389,-1.2359,-1.2358,-1.231,-1.2291,-1.2271,-1.2234,-1.2217,-1.2176,-1.2151,-1.2132,-1.2155,-1.2128,-1.2149,-1.2176,-1.2172,-1.2176,-1.2179,-1.2188,-1.2192,-1.2149,-1.215,-1.215,0,-1.2522,-1.2494,-1.2453,-1.2438,-1.242,-1.2376,-1.2367,-1.2344,-1.2298,-1.2287,-1.2273,-1.2223,-1.2193,-1.2174,-1.218,-1.2167,-1.2163,-1.2153,-1.2179,-1.2181,-1.2184,-1.2192,-1.2195,-1.2152,-1.2152,-1.2152,-1.2152,0,-1.2534,-1.2515,-1.2513,-1.2471,-1.2453,-1.2441,-1.2399,-1.2386,-1.2361,-1.2332,-1.2313,-1.2277,-1.2245,-1.2238,-1.2213,-1.2216,-1.2209,-1.2188,-1.2162,-1.2193,-1.2199,-1.2202,-1.2156,-1.2155,-1.2155,-1.2154,0,0,-1.2593,-1.2531,-1.2531,-1.2513,-1.2467,-1.2452,-1.2439,-1.2408,-1.2398,-1.2368,-1.2357,-1.2325,-1.2305,-1.2285,-1.2256,-1.2253,-1.2274,-1.2231,-1.223,-1.2241,-1.2277,-1.2294,-1.2298,-1.2256,-1.2257,-1.2257,-1.2281,0,-1.2616,-1.259,-1.2554,-1.254,-1.2523,-1.2482,-1.2471,-1.2442,-1.2416,-1.2398,-1.2368,-1.2347,-1.2322,-1.231,-1.2304,-1.2273,-1.2281,-1.2271,-1.2245,-1.2245,-1.2256,-1.2301,-1.2318,-1.2342,-1.2283,-1.2283,-1.2284,0,-1.2638,-1.2612,-1.2597,-1.2555,-1.2546,-1.2537,-1.2507,-1.249,-1.2457,-1.2438,-1.2417,-1.2387,-1.2372,-1.235,-1.2329,-1.2323,-1.231,-1.2294,-1.2293,-1.2289,-1.2266,-1.2298,-1.2348,-1.2352,-1.2287,-1.2287,-1.2287,0,-1.2684,-1.2645,-1.2632,-1.2617,-1.2567,-1.2562,-1.2541,-1.2507,-1.2492,-1.2466,-1.2456,-1.2428,-1.2413,-1.2393,-1.2356,-1.2344,-1.2339,-1.2314,-1.2324,-1.2325,-1.2324,-1.2324,-1.2373,-1.2316,-1.2316,-1.2316,-1.2316,0,-1.2712,-1.2705,-1.2652,-1.2643,-1.2634,-1.2594,-1.2586,-1.2561,-1.2532,-1.2519,-1.2482,-1.247,-1.2423,-1.2405,-1.2377,-1.2364,-1.2358,-1.2342,-1.2335,-1.2346,-1.2348,-1.2336,-1.2334,-1.2317,-1.2317,-1.2317,-1.2316,0,-1.2761,-1.2725,-1.2708,-1.2663,-1.2652,-1.2648,-1.2609,-1.26,-1.2573,-1.2556,-1.255,-1.2507,-1.2485,-1.2447,-1.2414,-1.2395,-1.2388,-1.2375,-1.2399,-1.2395,-1.2407,-1.2406,-1.2449,-1.2453,-1.2395,-1.2395,-1.2396,0,-1.2782,-1.2775,-1.2731,-1.2719,-1.27,-1.2682,-1.2667,-1.2627,-1.2613,-1.2577,-1.2572,-1.2548,-1.2526,-1.2493,-1.2459,-1.2434,-1.242,-1.2437,-1.2416,-1.2428,-1.2421,-1.2422,-1.2421,-1.2442,-1.2442,-1.2443,-1.2444,0,-1.2823,-1.2806,-1.2785,-1.276,-1.2743,-1.272,-1.2696,-1.2689,-1.2644,-1.263,-1.2607,-1.2591,-1.2558,-1.2535,-1.2505,-1.2483,-1.2457,-1.2451,-1.2452,-1.2463,-1.2477,-1.247,-1.2413,-1.245,-1.2449,-1.2449,-1.2448,-1.2448,-1.2858,-1.2851,-1.2819,-1.2798,-1.2776,-1.2755,-1.2745,-1.2717,-1.2698,-1.2668,-1.2646,-1.2626,-1.2595,-1.2553,-1.2534,-1.2517,-1.2505,-1.2506,-1.2506,-1.2507,-1.2512,-1.248,-1.2512,-1.2512,-1.2511,-1.2511,-1.2511,0,-1.2897,-1.2875,-1.2857,-1.2824,-1.2809,-1.2786,-1.2758,-1.2746,-1.2729,-1.2703,-1.2683,-1.2658,-1.2636,-1.2601,-1.2576,-1.257,-1.2557,-1.2565,-1.2565,-1.2561,-1.2524,-1.2526,-1.2576,-1.2576,-1.2576,-1.2576,-1.2576,-1.2576,-1.2916,-1.2903,-1.2883,-1.286,-1.2838,-1.2819,-1.2805,-1.2785,-1.2764,-1.2739,-1.2721,-1.2699,-1.2669,-1.2642,-1.2621,-1.2611,-1.2604,-1.2616,-1.2602,-1.2569,-1.2563,-1.2557,-1.2559,-1.2615,-1.2615,-1.264,-1.264,-1.264]},{"header":{"parameterUnit":"m.s-1","parameterCategory":1,"la1":30.2991,"la2":30.254,"lo1":-89.0895,"lo2":-89.0444,"dy":0.0017,"dx":0.0017,"nx":28,"ny":28,"refTime":"2025-04-28T03:00:00:Z","depth":0,"parameterNumber":3,"parameterNumberName":"V-component_of_WINDS"},"data":[0,0,0,0,0,0,0,0,0,0,0,0,0,0,0,0,0,0,0,0,0,0,0,0,0,0,0,0,0,0,0,0,0,0,0,0,0,0,0,0,0,0,0,0,0,0,0,0,0,0,0,0,0,0,0,0,0,0,3.7978,3.7978,0,3.7957,3.7957,3.7957,3.7992,3.7993,3.7995,3.7996,3.7967,3.7965,3.7963,0,0,0,0,0,0,0,0,0,0,0,0,0,3.8044,3.8042,3.7978,3.7978,3.7978,3.7957,3.7957,3.7957,3.7992,3.7994,3.7995,3.7996,3.7968,3.7966,3.7963,0,0,0,0,0,0,0,0,0,0,0,0,0,3.8018,3.8042,3.7978,3.7993,3.7994,3.7957,3.7957,3.7957,3.7992,3.7994,3.7995,3.7997,3.7969,3.7966,3.7963,3.7908,0,0,3.7954,3.7953,0,0,0,0,0,0,0,0,3.802,3.8016,3.7991,3.7992,3.7993,3.7979,3.797,3.794,3.7991,3.7992,3.7996,3.7998,3.7969,3.7966,3.7958,3.7907,3.7906,3.7954,3.7952,3.7951,3.795,0,0,0,0,0,0,0,3.8021,3.8017,3.797,3.7991,3.7992,3.7999,3.7997,3.7964,3.797,3.7993,3.7995,3.7992,3.797,3.7961,3.7958,3.7905,3.7954,3.7951,3.795,3.7949,3.7808,3.7807,0,0,0,0,0,0,3.8022,3.8018,3.797,3.7969,3.8012,3.7996,3.7995,3.7982,3.7971,3.7971,3.7991,3.7994,3.7965,3.7961,3.7957,3.7892,3.7951,3.7948,3.7947,3.781,3.7808,3.7806,0,0,0,0,0,0,3.8023,3.8018,3.7971,3.7994,3.7989,3.7993,3.7979,3.798,3.7971,3.797,3.7971,3.7981,3.7966,3.7961,3.7921,3.7892,3.7947,3.7944,3.7813,3.781,3.7807,3.7762,0,0,0,0,0,0,3.8025,3.8018,3.7998,3.7994,3.7988,3.7937,3.7977,3.7979,3.7967,3.7971,3.7961,3.796,3.7967,3.7925,3.7918,3.7889,3.7942,3.7815,3.7811,3.7808,3.7766,3.7758,3.7751,0,0,0,0,0,3.8027,3.7985,3.7997,3.7991,3.7964,3.7935,3.7932,3.7942,3.7965,3.7944,3.7944,3.7961,3.7897,3.792,3.7913,3.7882,3.7817,3.7813,3.7808,3.777,3.776,3.7751,0,0,0,0,0,0,3.7983,3.7985,3.7998,3.7953,3.7944,3.7941,3.7916,3.7931,3.7914,3.7918,3.793,3.7927,3.7884,3.7879,3.7906,3.7829,3.786,3.7854,3.7834,3.7824,3.7817,3.7818,3.794,0,0,0,0,0,3.7969,3.7948,3.7949,3.7909,3.7905,3.7911,3.7899,3.7909,3.7898,3.7894,3.789,3.7878,3.7855,3.784,3.7819,3.7767,3.7764,3.7742,3.7734,3.7728,3.7722,3.7694,3.7684,3.7791,3.7791,3.7791,0,0,3.7937,3.7936,3.7921,3.7901,3.7895,3.7871,3.7907,3.788,3.7862,3.7889,3.7851,3.7848,3.7836,3.7789,3.7769,3.7784,3.7692,3.7722,3.7718,3.7715,3.7688,3.7678,3.7669,3.7788,3.7788,3.7789,0,0,3.7868,3.7866,3.7833,3.7827,3.7818,3.7823,3.7815,3.781,3.781,3.7773,3.7793,3.7771,3.7731,3.7722,3.7711,3.7641,3.7656,3.7633,3.7593,3.7566,3.7557,3.755,3.7524,3.7514,3.7628,3.7628,3.7628,0,3.783,3.7797,3.7813,3.7785,3.7775,3.7802,3.7767,3.776,3.7744,3.7735,3.7754,3.7706,3.7699,3.765,3.7634,3.7625,3.7615,3.7634,3.7558,3.755,3.7543,3.7519,3.7509,3.7625,3.7625,3.7626,3.7626,0,3.775,3.7726,3.77,3.7687,3.7674,3.7643,3.7653,3.7638,3.7649,3.7651,3.7613,3.7606,3.7584,3.7574,3.7583,3.7527,3.7537,3.7556,3.7587,3.753,3.7507,3.7498,3.7621,3.7622,3.7623,3.7624,0,0,3.765,3.7648,3.7638,3.7633,3.7627,3.7608,3.7578,3.7559,3.7545,3.7534,3.7508,3.7475,3.7493,3.7481,3.749,3.7466,3.741,3.7488,3.7488,3.7473,3.7347,3.7331,3.732,3.7421,3.7419,3.7418,3.7348,0,3.7581,3.7532,3.7546,3.7495,3.7473,3.7499,3.7473,3.7465,3.7467,3.7447,3.7449,3.7425,3.7451,3.7445,3.7422,3.7421,3.7384,3.7427,3.7394,3.7393,3.7396,3.7308,3.7292,3.7226,3.7339,3.7337,3.7336,0,3.7493,3.7482,3.743,3.7428,3.7419,3.7396,3.738,3.7361,3.7353,3.7356,3.7344,3.7358,3.7327,3.736,3.7316,3.7344,3.7332,3.733,3.7328,3.7324,3.736,3.7301,3.7206,3.7195,3.7322,3.7323,3.7324,0,3.7425,3.7396,3.7361,3.7356,3.7353,3.7336,3.7333,3.7327,3.7315,3.7301,3.7293,3.7275,3.7264,3.7248,3.7256,3.728,3.7211,3.7244,3.7211,3.721,3.7193,3.7194,3.7093,3.7187,3.7188,3.7188,3.7188,0,3.7346,3.7313,3.7331,3.7309,3.7273,3.7289,3.7252,3.7252,3.7247,3.7224,3.7245,3.7223,3.7236,3.7214,3.722,3.7182,3.7177,3.7178,3.7179,3.7175,3.7175,3.7166,3.717,3.7185,3.7186,3.7186,3.7187,0,3.7262,3.7273,3.7237,3.7239,3.7238,3.7211,3.7212,3.7191,3.7195,3.7167,3.7161,3.7167,3.7143,3.715,3.7123,3.7128,3.708,3.7088,3.7083,3.7085,3.7051,3.7053,3.694,3.6925,3.7029,3.7028,3.7028,0,3.721,3.7186,3.7186,3.7174,3.7171,3.7151,3.714,3.7155,3.7142,3.7131,3.7111,3.709,3.7074,3.7034,3.7035,3.7015,3.7021,3.6983,3.7018,3.7015,3.702,3.7021,3.7018,3.6975,3.6974,3.6973,3.6972,0,3.7117,3.7124,3.7109,3.7095,3.7082,3.7071,3.7062,3.705,3.7065,3.7049,3.7027,3.7014,3.6989,3.6967,3.6949,3.6944,3.696,3.6962,3.6953,3.6947,3.6946,3.6946,3.7063,3.6964,3.6965,3.6965,3.6966,3.6966,3.7047,3.7027,3.7024,3.7006,3.7002,3.6993,3.6974,3.6977,3.696,3.6942,3.6951,3.6925,3.6917,3.6895,3.6888,3.6867,3.6881,3.6868,3.6865,3.6861,3.6856,3.6951,3.6863,3.6864,3.6864,3.6864,3.6864,0,3.6954,3.6954,3.6938,3.6926,3.6911,3.6931,3.6922,3.6908,3.6886,3.6878,3.6863,3.6837,3.6816,3.6816,3.6796,3.6779,3.6786,3.6773,3.6774,3.6772,3.6845,3.6854,3.6768,3.6768,3.6768,3.6768,3.6768,3.6768,3.6903,3.6871,3.6878,3.6842,3.6842,3.6818,3.6812,3.6804,3.6798,3.6769,3.6753,3.6754,3.675,3.673,3.6711,3.6712,3.6703,3.6687,3.669,3.6758,3.6767,3.6776,3.6785,3.6686,3.6686,3.6619,3.6619,3.6618]}]]